{"data":{"norad_id":64520,"epoch":"2026-05-24T23:40:09.583392Z","epoch_age_seconds":82999,"freshness":"FRESH","line1":"1 64520U 25134W   26144.98622203  .00003041  00000+0  42807-3 0  9992","line2":"2 64520  51.9010 243.2529 0000632  94.5787 265.5248 14.79902511 51538","mean_motion":14.79902511,"eccentricity":6.32e-5,"inclination_deg":51.901,"raan_deg":243.2529,"arg_perigee_deg":94.5787,"mean_anomaly_deg":265.5248,"bstar":0.00042807,"rev_number":5153,"period_min":97.303706784507,"perigee_km":629.18898605216,"apogee_km":630.07476803822,"semimajor_km":7007.7688770452,"source":"CELESTRAK","updated_at":"2026-05-25T13:38:04.576958Z"}}